Location: *
(51.5000°N, 0.1100°W)
Time: 17:50:46
(UTC+00:00)

SL-16 R/B - Pass Details

Date: 25 May 2024
Orbit: 985 x 1007 km, 99.7° (Epoch: 16 June)

Event Time Altitude Azimuth Distance (km) Brightness Sun altitude
Rises 01:07:43 0° 127° (SE) 3,729 5.4 -15.9°
Reaches altitude 10° 01:10:26 10° 118° (ESE) 2,783 4.8 -15.7°
Maximum altitude 01:15:53 33° 57° (ENE) 1,637 4.2 -15.5°
Drops below altitude 10° 01:21:21 10° 356° (N) 2,793 6.0 -15.2°
Sets 01:24:04 0° 348° (NNW) 3,745 6.6 -15.0°
